Weather History for K0J4 - September, 2013

Change the Weather History Date:

Tuesday, September 17, 2013

  Actual Average (KCEW) Record (KCEW)
Temperature  
Mean Temperature 81 °F -  
Max Temperature 91 °F 89 °F 97 °F (1991)
Min Temperature 71 °F 66 °F 52 °F (1999)
Cooling Degree Days 16    
Growing Degree Days 31 (Base 50)    
Moisture  
Dew Point 72 °F    
Average Humidity 83    
Maximum Humidity 94    
Minimum Humidity 50    
Precipitation  
Precipitation 0.52 in - - ()
Sea Level Pressure  
Sea Level Pressure 30.06 in    
Wind  
Wind Speed 3 mph (ENE)    
Max Wind Speed 14 mph    
Max Gust Speed 28 mph    
Visibility 8 miles    
Events Rain , Thunderstorm    
Averages and records for this station are not official NWS values.
T = Trace of Precipitation, MM = Missing Value Source: NWS Daily Summary

Daily Weather History Graph

Daily Weather History Graph

Search for Another Location

Airport or City:

Trip Planner

Search our weather history database for the weather conditions in past years. The results will help you decide how hot, cold, wet, or windy it might be!

Date:

Astronomy

Sep. 17, 2013 Rise Set
Actual Time 6:30 AM CDT 6:47 PM CDT
Civil Twilight 6:06 AM CDT 7:12 PM CDT
Nautical Twilight 5:38 AM CDT 7:40 PM CDT
Astronomical Twilight 5:09 AM CDT 8:08 PM CDT
Moon 5:31 PM CDT (9/17) 4:30 AM CDT (9/17)
Length of Visible Light 13h 05m
Length of Day
12h 17m
Waxing Gibbous, 96% of the Moon is Illuminated
Sep 17
Waxing Gibbous
Sep 19
Full
Sep 26
Last Quarter
Oct 4
New
Oct 11
First Quarter

Hourly Weather History & Observations

Time (CDT) Temp. Heat Index Dew Point Humidity Pressure Visibility Wind Dir Wind Speed Gust Speed Precip Events Conditions
12:58 AM 73.0 °F - 71.1 °F 93% 30.06 in 8.0 mi North 3.5 mph - N/A   Clear
1:58 AM 73.9 °F - 71.1 °F 91% 30.05 in 9.0 mi Calm Calm - N/A   Clear
2:58 AM 73.0 °F - 71.1 °F 93% 30.04 in 6.0 mi Calm Calm - N/A   Clear
3:58 AM 73.0 °F - 71.1 °F 93% 30.04 in 7.0 mi Calm Calm - N/A   Clear
4:58 AM 72.0 °F - 70.0 °F 93% 30.05 in 9.0 mi Calm Calm - N/A   Clear
5:58 AM 71.1 °F - 69.1 °F 93% 30.06 in 7.0 mi Calm Calm - N/A   Clear
6:58 AM 72.0 °F - 70.0 °F 93% 30.07 in 4.0 mi North 3.5 mph - N/A   Clear
7:58 AM 75.0 °F - 72.0 °F 90% 30.09 in 6.0 mi ENE 4.6 mph - N/A   Clear
8:58 AM 80.1 °F 84.2 °F 73.0 °F 79% 30.09 in 10.0 mi NE 4.6 mph - N/A   Clear
9:58 AM 82.9 °F 89.4 °F 73.9 °F 74% 30.10 in 10.0 mi East 4.6 mph - N/A   Clear
10:58 AM 86.0 °F 93.8 °F 73.9 °F 67% 30.11 in 10.0 mi East 3.5 mph - N/A   Clear
11:58 AM 89.1 °F 97.0 °F 73.0 °F 59% 30.09 in 10.0 mi ENE 6.9 mph - N/A   Clear
12:58 PM 88.0 °F 95.6 °F 73.0 °F 61% 30.07 in 10.0 mi Variable 4.6 mph - N/A   Partly Cloudy
1:58 PM 91.0 °F 99.3 °F 73.0 °F 55% 30.04 in 10.0 mi East 4.6 mph - N/A   Partly Cloudy
2:58 PM 91.9 °F 98.4 °F 71.1 °F 50% 30.01 in 10.0 mi East 10.4 mph - N/A   Clear
3:58 PM 90.0 °F 96.9 °F 72.0 °F 55% 30.00 in 10.0 mi ESE 6.9 mph - N/A   Partly Cloudy
4:57 PM 91.0 °F 98.2 °F 72.0 °F 53% 30.00 in 10.0 mi NE 13.8 mph 17.3 mph N/A Thunderstorm Scattered Clouds
5:09 PM 80.6 °F 84.6 °F 71.6 °F 74% 30.03 in 1.2 mi East 11.5 mph 27.6 mph 0.13 in Rain , Thunderstorm Heavy Thunderstorms and Rain
5:14 PM 77.0 °F - 71.6 °F 83% 30.03 in 0.5 mi NW 8.1 mph 27.6 mph 0.33 in Rain , Thunderstorm Heavy Thunderstorms and Rain
5:27 PM 75.2 °F - 73.4 °F 94% 30.02 in 2.0 mi Calm Calm - 0.44 in Rain , Thunderstorm Light Thunderstorms and Rain
5:31 PM 77.0 °F - 73.4 °F 89% 30.02 in 7.0 mi South 4.6 mph - 0.44 in Rain , Thunderstorm Light Thunderstorms and Rain
5:58 PM 77.0 °F - 73.0 °F 88% 30.03 in 10.0 mi WSW 5.8 mph - 0.44 in Thunderstorm Thunderstorm
6:26 PM 75.2 °F - 71.6 °F 89% 30.05 in 10.0 mi South 11.5 mph - N/A Thunderstorm Thunderstorm
6:49 PM 75.2 °F - 71.6 °F 89% 30.04 in 10.0 mi West 3.5 mph - N/A Thunderstorm Thunderstorm
6:58 PM 75.0 °F - 72.0 °F 90% 30.02 in 10.0 mi Calm Calm - N/A Thunderstorm Thunderstorm
7:20 PM 73.4 °F - 71.6 °F 94% 30.04 in 10.0 mi Calm Calm - N/A   Partly Cloudy
7:58 PM 75.0 °F - 72.0 °F 90% 30.04 in 10.0 mi Calm Calm - N/A   Scattered Clouds
8:52 PM 75.2 °F - 71.6 °F 89% 30.09 in 3.0 mi SW 5.8 mph - 0.07 in Rain Heavy Rain
8:58 PM 75.0 °F - 73.0 °F 94% 30.08 in 4.0 mi Calm Calm - 0.08 in Rain Rain
9:57 PM 75.9 °F - 73.0 °F 91% 30.08 in 10.0 mi NNE 3.5 mph - 0.00 in Thunderstorm Thunderstorm
10:13 PM 75.2 °F - 73.4 °F 94% 30.09 in 10.0 mi NE 4.6 mph - N/A   Mostly Cloudy
10:33 PM 77.0 °F - 73.4 °F 89% 30.10 in 10.0 mi East 4.6 mph - N/A   Mostly Cloudy
10:58 PM 75.9 °F - 73.9 °F 94% 30.10 in 9.0 mi Calm Calm - N/A   Overcast
11:11 PM 75.2 °F - 73.4 °F 94% 30.10 in 7.0 mi Calm Calm - N/A Thunderstorm Thunderstorm
11:32 PM 75.2 °F - 73.4 °F 94% 30.12 in 8.0 mi Calm Calm - N/A   Overcast
11:58 PM 75.9 °F - 73.0 °F 91% 30.10 in 10.0 mi ENE 3.5 mph - N/A   Scattered Clouds